This demonstration page uses our WeatherBlox Daily Observations layout. Learn more.

Left ArrowRight Arrow

47.50024, -111.30081

Hourly Observations for March 30, 2017

Temp ( °F °C ) Dew Point ( °F °C ) Humidity (%) Winds ( mph kmh ) Pressure ( in mb ) Visibility ( mi km ) Precip ( " mm )
12:53 am 00:53 Clear 48 8.9 34 1.1 58 58 SW 18 30 29.75 1007 10 16 0.00 0.00
1:53 am 01:53 Clear 46 7.8 33 0.6 61 61 SW 20 31 29.76 1008 10 16 0.00 0.00
2:53 am 02:53 Clear 44 6.7 32 0 63 63 SW 15 24 29.73 1007 10 16 0.00 0.00
3:53 am 03:53 Clear 43 6.1 32 0 65 65 SSW 9 15 29.73 1007 10 16 0.00 0.00
4:53 am 04:53 Clear 42 5.6 32 0 68 68 SW 14 22 29.70 1006 10 16 0.00 0.00
5:53 am 05:53 Clear 40 4.4 32 0 73 73 SSW 10 17 29.72 1006 10 16 0.00 0.00
6:53 am 06:53 Clear 39 3.9 32 0 76 76 WSW 7 11 29.72 1007 10 16 0.00 0.00
7:53 am 07:53 Mostly Cloudy 41 5 33 0.6 73 73 SW 8 13 29.74 1007 10 16 0.00 0.00
8:53 am 08:53 Partly Cloudy 45 7.2 34 1.1 66 66 WSW 8 13 29.74 1007 10 16 0.00 0.00
9:53 am 09:53 Sunny 49 9.4 34 1.1 56 56 W 8 13 29.73 1007 10 16 0.00 0.00
10:53 am 10:53 Sunny 53 11.7 30 -1.1 41 41 NNW 7 11 29.73 1007 10 16 0.00 0.00
11:53 am 11:53 Sunny 56 13.3 28 -2.2 34 34 VRB 3 6 29.71 1006 10 16 0.00 0.00
12:53 pm 12:53 Sunny 57 13.9 25 -3.9 29 29 ESE 6 9 29.70 1006 10 16 0.00 0.00
1:53 pm 13:53 Mostly Cloudy 59 15 27 -2.8 29 29 undefined N/A 29.70 1006 10 16 0.00 0.00
2:53 pm 14:53 Mostly Sunny 60 15.6 28 -2.2 30 30 undefined N/A 29.71 1006 10 16 0.00 0.00
3:53 pm 15:53 Cloudy 57 13.9 24 -4.4 28 28 N 8 13 29.73 1007 10 16 0.00 0.00
4:53 pm 16:53 Sunny 57 13.9 23 -5 27 27 NE 10 17 29.74 1007 10 16 0.00 0.00
5:53 pm 17:53 Cloudy 57 13.9 23 -5 27 27 N 16 26 29.77 1008 10 16 0.00 0.00
6:53 pm 18:53 Cloudy 58 14.4 20 -6.7 23 23 N 17 28 29.80 1009 10 16 0.00 0.00
7:53 pm 19:53 Partly Cloudy 51 10.6 20 -6.7 29 29 N 12 19 29.84 1011 10 16 0.00 0.00
8:53 pm 20:53 Cloudy 50 10 19 -7.2 29 29 NNW 14 22 29.87 1012 10 16 0.00 0.00
9:53 pm 21:53 Cloudy 49 9.4 23 -5 36 36 N 18 30 29.90 1013 10 16 0.00 0.00
10:53 pm 22:53 Cloudy 47 8.3 24 -4.4 41 41 NNE 13 20 29.94 1014 10 16 0.00 0.00
11:53 pm 23:53 Cloudy 44 6.7 27 -2.8 51 51 NNW 10 17 29.96 1014 10 16 0.00 0.00

Powered by AerisWeather